Location: Beang
(6.6177°N, 10.9863°W)
Time: 21:14:16
(UTC+00:00)

Skynet4D Del rocket - Visible Passes

Search period start: 29 September 2020 00:00
Search period end: 09 October 2020 00:00
Orbit: 763 x 1291 km, 26.9° (Epoch: 28 September)

Date Brightness Start Highest point End Pass type
(mag) Time Alt. Az. Time Alt. Az. Time Alt. Az.
29 Sep 5.2 04:20:37 27° NE 04:20:37 27° NE 04:24:36 10° E visible
29 Sep 3.7 06:07:06 10° WNW 06:12:32 77° SSW 06:18:30 10° ESE visible
29 Sep 4.3 19:25:30 10° WSW 19:33:34 88° NNW 19:38:59 19° ENE visible
29 Sep 5.8 21:20:23 10° W 21:24:38 26° NW 21:24:38 26° NW visible
30 Sep 3.9 04:59:49 42° NNW 05:01:24 59° NNE 05:06:56 10° ESE visible
30 Sep 4.9 20:07:31 10° W 20:15:04 48° NNW 20:18:05 31° NNE visible
01 Oct 5.9 03:53:23 18° ENE 03:53:23 18° ENE 03:55:04 10° E visible
01 Oct 3.7 05:39:02 20° WNW 05:42:43 59° SSW 05:48:19 10° SE visible
01 Oct 4.6 18:55:06 10° WSW 19:03:20 75° NNW 19:10:45 10° ENE visible
01 Oct 5.6 20:50:23 10° WNW 20:56:42 28° NNW 20:57:09 27° NNW visible
02 Oct 3.9 04:32:35 59° E 04:32:35 59° E 04:37:04 10° ESE visible
02 Oct 5.3 19:37:20 10° W 19:44:54 42° NNW 19:50:30 16° NE visible
02 Oct 6.5 21:34:01 10° NW 21:36:09 15° NW 21:36:09 15° NW visible
03 Oct 3.9 05:11:46 39° WSW 05:12:55 45° SSW 05:18:09 10° SE visible
03 Oct 5.8 20:20:24 10° WNW 20:26:41 25° NNW 20:29:27 20° N visible
04 Oct 5.5 04:05:16 23° ESE 04:05:16 23° ESE 04:07:13 10° ESE visible
04 Oct 5.2 05:50:55 11° WSW 05:54:19 19° SSW 05:58:10 10° SSE visible
04 Oct 5.6 19:07:13 10° W 19:14:43 37° NNW 19:21:39 10° NE visible
04 Oct 6.2 21:04:07 10° NW 21:08:20 17° NNW 21:08:20 17° NNW visible
05 Oct 4.7 04:44:23 30° S 04:44:23 30° S 04:47:59 10° SE visible
05 Oct 6.0 19:50:27 10° WNW 19:56:38 23° NNW 20:01:33 13° NNE visible
06 Oct 5.3 05:23:28 14° SW 05:24:31 14° SSW 05:27:25 10° S visible
06 Oct 6.2 20:34:10 10° NW 20:38:53 17° N 20:40:20 16° N visible
07 Oct 5.8 04:16:51 14° SSE 04:16:51 14° SSE 04:17:47 10° SSE visible
07 Oct 6.2 19:20:34 10° WNW 19:26:35 22° NNW 19:32:20 10° NNE visible
07 Oct 6.5 21:17:29 10° NNW 21:19:05 13° NNW 21:19:05 13° NNW visible
08 Oct 5.8 04:55:49 10° SSW 04:55:49 10° SSW 04:56:11 10° SSW visible
08 Oct 6.2 20:04:11 10° NW 20:08:58 16° N 20:12:11 13° NNE visible
